KE0RUZ Weather Reports


Display with metric or nautical units.
time (UTC)temp
F
wind
direction
speed
MPH
gust
MPH
rain 1hr
in
rain 24hr
in
rain mn
in
humidity
%
barometer
mb
20260904224545 99 237 4.0 10.0 0.00 0.00 0.00 40 1014.1
20260904223053 99 173 4.0 7.0 0.00 0.00 0.00 40 1014.1
20260904221557 99 229 1.0 9.0 0.00 0.00 0.00 40 1014.2
20260904220058 100 227 3.0 7.0 0.00 0.00 0.00 40 1014.2
20260904214552 100 205 3.0 9.0 0.00 0.00 0.00 39 1014.3
20260904213050 100 126 2.0 8.0 0.00 0.00 0.00 39 1014.4
20260904211547 99 110 4.0 9.0 0.00 0.00 0.00 41 1014.6
20260904210044 100 132 4.0 10.0 0.00 0.00 0.00 40 1014.7
20260904204558 99 199 2.0 7.0 0.00 0.00 0.00 43 1014.8
20260904203050 99 106 4.0 12.0 0.00 0.00 0.00 43 1014.9
20260904201547 99 168 4.0 8.0 0.00 0.00 0.00 43 1015.2
20260904200100 99 129 3.0 9.0 0.00 0.00 0.00 44 1015.4
20260904194555 98 235 3.0 8.0 0.00 0.00 0.00 44 1015.6
20260904193049 97 295 4.0 11.0 0.00 0.00 0.00 46 1015.6
20260904191547 97 151 4.0 14.0 0.00 0.00 0.00 46 1015.9
20260904190059 97 145 3.0 9.0 0.00 0.00 0.00 45 1016.2
20260904184554 98 154 2.0 8.0 0.00 0.00 0.00 47 1016.4
20260904183116 95 139 5.0 11.0 0.00 0.00 0.00 49 1016.5
20260904181557 96 307 3.0 8.0 0.00 0.00 0.00 49 1016.6
20260904180100 96 179 2.0 8.0 0.00 0.00 0.00 49 1016.7
20260904174556 94 264 3.0 12.0 0.00 0.00 0.00 49 1017.2
20260904173103 94 176 5.0 10.0 0.00 0.00 0.00 52 1017.4
20260904171613 93 201 5.0 11.0 0.00 0.00 0.00 53 1017.5
20260904170058 94 237 3.0 9.0 0.00 0.00 0.00 54 1017.5
20260904164610 93 193 3.0 11.0 0.00 0.00 0.00 55 1017.7
20260904163050 92 212 3.0 8.0 0.00 0.00 0.00 56 1017.8
20260904161600 91 212 3.0 8.0 0.00 0.00 0.00 59 1017.8
20260904160110 90 269 3.0 7.0 0.00 0.00 0.00 60 1017.9
20260904154554 90 160 1.0 8.0 0.00 0.00 0.00 63 1018.1
20260904153111 89 247 4.0 6.0 0.00 0.00 0.00 63 1018.1
20260904151558 88 228 2.0 5.0 0.00 0.00 0.00 64 1018.1
20260904144603 86 125 2.0 9.0 0.00 0.00 0.00 67 1017.8
20260904143059 87 264 2.0 4.0 0.00 0.00 0.00 66 1018.0
20260904141557 85 185 1.0 4.0 0.00 0.00 0.00 69 1018.0
20260904140056 84 174 1.0 5.0 0.00 0.00 0.00 69 1017.9
20260904134558 83 235 1.0 4.0 0.00 0.00 0.00 71 1017.9
20260904133100 81 198 0.0 3.0 0.00 0.00 0.00 75 1018.0
20260904131602 79 276 0.0 3.0 0.00 0.00 0.00 77 1017.9
20260904130054 76 0 0.0 1.0 0.00 0.00 0.00 82 1017.8
20260904124554 74 129 1.0 3.0 0.00 0.00 0.00 84 1017.7
20260904123055 73 0 0.0 2.0 0.00 0.00 0.00 86 1017.5
20260904121600 72 146 0.0 1.0 0.00 0.00 0.00 87 1017.7
20260904120100 71 0 0.0 0.0 0.00 0.00 0.00 88 1017.5
20260904114603 71 0 0.0 0.0 0.00 0.00 0.00 87 1017.3
20260904113056 71 0 0.0 0.0 0.00 0.00 0.00 86 1017.0
20260904111600 72 0 0.0 1.0 0.00 0.00 0.00 86 1016.8
20260904104559 72 0 0.0 0.0 0.00 0.00 0.00 86 1016.7
20260904103057 72 0 0.0 0.0 0.00 0.00 0.00 86 1016.7
20260904101610 72 0 0.0 0.0 0.00 0.00 0.00 85 1016.6
20260904100107 72 0 0.0 0.0 0.00 0.00 0.00 85 1016.5
20260904094607 73 0 0.0 0.0 0.00 0.00 0.00 83 1016.4
20260904093052 73 0 0.0 0.0 0.00 0.00 0.00 83 1016.1
20260904091602 74 0 0.0 0.0 0.00 0.00 0.00 81 1016.0
20260904090059 75 0 0.0 0.0 0.00 0.00 0.00 79 1015.9
20260904084555 76 0 0.0 0.0 0.00 0.00 0.00 78 1015.9
20260904083050 77 0 0.0 0.0 0.00 0.00 0.00 76 1015.9
20260904081602 78 145 0.0 1.0 0.00 0.00 0.00 74 1015.6
20260904080055 78 150 0.0 1.0 0.00 0.00 0.00 74 1015.6
20260904074552 79 114 1.0 4.0 0.00 0.00 0.00 73 1015.5
20260904073056 79 132 1.0 3.0 0.00 0.00 0.00 73 1015.5
20260904071558 79 127 1.0 6.0 0.00 0.00 0.00 73 1015.4
20260904070058 79 150 0.0 3.0 0.00 0.00 0.00 73 1015.5
20260904064553 79 145 1.0 4.0 0.00 0.00 0.00 72 1015.7
20260904063057 80 157 0.0 2.0 0.00 0.00 0.00 72 1015.6
20260904061546 80 0 1.0 3.0 0.00 0.00 0.00 71 1015.6
20260904060114 80 135 0.0 2.0 0.00 0.00 0.00 70 1015.6
20260904054612 81 120 1.0 3.0 0.00 0.00 0.00 70 1015.5
20260904053049 81 166 0.0 2.0 0.00 0.00 0.00 69 1015.4
20260904051558 81 137 0.0 2.0 0.00 0.00 0.00 68 1015.4
20260904050056 82 153 0.0 2.0 0.00 0.00 0.00 67 1015.4
20260904044554 82 128 0.0 3.0 0.00 0.00 0.00 66 1015.4
20260904043049 82 122 1.0 3.0 0.00 0.00 0.00 65 1015.3
20260904041548 83 151 0.0 2.0 0.00 0.00 0.00 64 1015.4
20260904040059 84 115 0.0 3.0 0.00 0.00 0.00 63 1015.3
20260904034552 84 148 1.0 4.0 0.00 0.00 0.00 62 1015.3
20260904033124 84 160 1.0 4.0 0.00 0.00 0.00 61 1015.3
20260904033048 84 160 1.0 4.0 0.00 0.00 0.00 61 1015.3
20260904031604 84 152 1.0 4.0 0.00 0.00 0.00 62 1015.3
20260904030055 84 113 0.0 1.0 0.00 0.00 0.00 62 1015.2
20260904024554 83 146 0.0 1.0 0.00 0.00 0.00 63 1015.0
20260904023104 84 0 0.0 0.0 0.00 0.00 0.00 62 1014.9
20260904021558 85 0 0.0 1.0 0.00 0.00 0.00 60 1014.5
20260904020101 86 0 0.0 1.0 0.00 0.00 0.00 58 1014.3
20260904014616 86 133 0.0 1.0 0.00 0.00 0.00 58 1014.2
20260904013054 86 0 0.0 0.0 0.00 0.00 0.00 57 1013.9
20260904011547 88 0 0.0 0.0 0.00 0.00 0.00 54 1013.7
20260904010044 90 0 0.0 0.0 0.00 0.00 0.00 51 1013.7
20260904004553 92 136 0.0 1.0 0.00 0.00 0.00 49 1013.5
20260904003047 93 124 0.0 3.0 0.00 0.00 0.00 47 1013.3
20260904001546 95 138 1.0 3.0 0.00 0.00 0.00 46 1013.4
20260904000055 96 148 1.0 7.0 0.00 0.00 0.00 44 1013.4
20260903234553 96 166 1.0 6.0 0.00 0.00 0.00 44 1013.3
20260903233054 97 210 3.0 7.0 0.00 0.00 0.00 43 1013.2
20260903231556 97 231 4.0 8.0 0.00 0.00 0.00 42 1013.3